Showing default

CANX-4, 40055

Orbit data source: Space-Track

CANX-4, 40055 is a payload satellite owned by UTIAS-SFL (CA) in SSO that was launched on Mon, 30 Jun 2014 UTC via a PSLV launch vehicle from the Sirharikota (SRI). Payload-class satellites include a variety of spacecraft equipped with specific instruments for various scientific and technological missions. These include communications satellites like Starlink; space stations such as the ISS; scientific satellites like the Hubble; Earth observation satellites from companies like Planet Labs, Umbra, and HawkEye 360; GPS; miniature CubeSats for education and research; and military/defense satellites.

Loading next visibility...
Identifier
40055, 2014-034C
Orbit
SSO
Country
Flag of CACA
Related business
Manufacturer
UTIAS-SFL
Mission
Operational Amateur Technology
Bus & Motor
GNB, Unknown motor
Mass
7 kg wet, 7 kg dry
Launch date (UTC)
2014-06-30 (11 years ago)
Launch vehicle
PSLV
Launch site
Sirharikota (SRI)
Object type
Payload
Rocket body
Debris
Shape & HBR
Box + 4 Ant, 0.1 m
Radar Cross Section
0.060 m², Medium (>0.1 m² and < 1m²)

Expand to show TLE details & history
Last TLE update: 22 hours ago

TLE from 22 hours ago
0 CANX-4
1 40055U 14034C   25261.06175279  .00000991  00000-0  13707-3 0  9999
2 40055  98.3489 120.8808 0013282 159.8308 200.3430 14.80432799604250
Epoch: 2025-09-18T01:28Z
TLE epoch observation values (Epoch: 2025-09-18T01:28:55.441Z)
Latitude
-0.00002°
Longitude
101.42105°
Altitude
639.695 km
Speed
7.534 km/s
True Right ascension
08h 03m 31s
True Declination
0° 00' 00"
Sunlit
Object was in daylight at epoch
Visualization orbit readout
Latitude
Unknown
Longitude
Unknown
Altitude
Unknown
Speed
Unknown
Apparent Right ascension
Unknown
Apparent Declination
Unknown
Sunlit
N/A
Visualization observer readout
Local Sidereal Time
16:23:54
Azimuth
Unknown
Elevation
Unknown
Doppler factor
Unknown
Orbital elements
Apogee altitude
634.321 km
Perigee altitude
615.718 km
Semi-major axis
7,003.156 km
Eccentricity
0.00133
Inclination
98.3489°
RAAN
120.8808°
Arg. of periapsis
159.8308°
True anomaly
200.29017°
Mean anomaly
200.343°
Eccentric anomaly
200.31658°
Mean motion
3.70342 °/min
Orbital period
97.21 mins
BSTAR
0.00013707
Loading maneuver chart data...
Computing Atmospheric mass density...
Loading historical data...
Loading historical data...
Loading historical data...
Loading historical data...
Loading historical data...
Loading historical data...
Loading historical data...
Other satellites on launch #34 in the year 2014 (2014-06-30 UTC)

Documentation

Showing up to 5 results
|